Rochester, NH

4:59 AM EDT on August 21, 2017 (GMT -0400)
Skyhaven

Weather History for KDAW - February, 2014

Change the Weather History Date:

Monday, February 17, 2014

  Actual Average (KPSM) Record (KPSM)
Temperature  
Mean Temperature 18 °F -  
Max Temperature 25 °F 34 °F 60 °F (1981)
Min Temperature 7 °F 19 °F -7 °F (1979)
Degree Days  
Heating Degree Days 48    
Moisture  
Dew Point -6 °F    
Average Humidity 38    
Maximum Humidity 53    
Minimum Humidity 28    
Precipitation  
Precipitation 0.00 in - - ()
Sea Level Pressure  
Sea Level Pressure 30.17 in    
Wind  
Wind Speed 11 mph (NW)    
Max Wind Speed 20 mph    
Max Gust Speed 28 mph    
Visibility 10 miles    
Events      
Averages and records for this station are not official NWS values.
T = Trace of Precipitation, MM = Missing Value Source: NWS Daily Summary

Daily Weather History Graph

Daily Weather History Graph

Search for Another Location

Airport or City:

Trip Planner

Search our weather history database for the weather conditions in past years. The results will help you decide how hot, cold, wet, or windy it might be!

Date:

Astronomy

Feb. 17, 2014 Rise Set
Actual Time 6:38 AM EST 5:17 PM EST
Civil Twilight 6:09 AM EST 5:46 PM EST
Nautical Twilight 5:36 AM EST 6:19 PM EST
Astronomical Twilight 5:03 AM EST 6:52 PM EST
Moon 8:15 PM EST (2/17) 7:32 AM EST (2/17)
Length of Visible Light 11h 36m
Length of Day
10h 38m
Waning Gibbous, 93% of the Moon is Illuminated
Feb 17
Waning Gibbous
Feb 22
Last Quarter
Mar 1
New
Mar 8
First Quarter
Mar 16
Full

Hourly Weather History & Observations

Time (EST) Temp. Windchill Dew Point Humidity Pressure Visibility Wind Dir Wind Speed Gust Speed Precip Events Conditions
12:51 AM 15.1 °F 1.8 °F -2.9 °F 45% 29.94 in 10.0 mi WNW 11.5 mph 19.6 mph N/A   Clear
1:51 AM 14.0 °F 2.9 °F -4.0 °F 45% 29.96 in 10.0 mi WNW 8.1 mph - N/A   Clear
2:51 AM 14.0 °F -1.4 °F -5.1 °F 43% 29.96 in 10.0 mi WNW 15.0 mph 25.3 mph N/A   Clear
3:51 AM 12.9 °F -2.8 °F -5.1 °F 45% 29.99 in 10.0 mi WNW 15.0 mph 20.7 mph N/A   Clear
4:51 AM 12.0 °F -3.4 °F -6.0 °F 44% 30.01 in 10.0 mi WNW 13.8 mph 23.0 mph N/A   Clear
5:51 AM 10.9 °F -1.8 °F -6.0 °F 47% 30.05 in 10.0 mi WNW 9.2 mph 18.4 mph N/A   Clear
6:51 AM 10.9 °F -5.4 °F -7.1 °F 44% 30.07 in 10.0 mi WNW 15.0 mph - N/A   Clear
7:51 AM 12.0 °F -6.0 °F -7.1 °F 42% 30.11 in 10.0 mi WNW 19.6 mph 26.5 mph N/A   Clear
8:51 AM 15.1 °F 0.5 °F -7.1 °F 37% 30.14 in 10.0 mi WNW 13.8 mph - N/A   Clear
9:51 AM 17.1 °F 1.5 °F -7.1 °F 34% 30.17 in 10.0 mi NW 17.3 mph 24.2 mph N/A   Clear
10:51 AM 19.0 °F 4.0 °F -6.0 °F 33% 30.18 in 10.0 mi NW 17.3 mph 27.6 mph N/A   Clear
11:51 AM 21.9 °F 9.2 °F -5.1 °F 30% 30.18 in 10.0 mi WNW 13.8 mph 21.9 mph N/A   Clear
12:51 PM 23.0 °F 13.1 °F -6.0 °F 28% 30.19 in 10.0 mi WNW 9.2 mph 21.9 mph N/A   Clear
1:51 PM 24.1 °F 13.1 °F -5.1 °F 28% 30.21 in 10.0 mi NW 11.5 mph 23.0 mph N/A   Clear
2:51 PM 25.0 °F 12.2 °F -4.0 °F 28% 30.22 in 10.0 mi NNW 16.1 mph 23.0 mph N/A   Clear
3:51 PM 24.1 °F 13.1 °F -5.1 °F 28% 30.24 in 10.0 mi WNW 11.5 mph 26.5 mph N/A   Clear
4:51 PM 21.9 °F 9.2 °F -6.0 °F 29% 30.27 in 10.0 mi WNW 13.8 mph 20.7 mph N/A   Clear
5:51 PM 19.9 °F 10.1 °F -6.0 °F 32% 30.28 in 10.0 mi WNW 8.1 mph 21.9 mph N/A   Clear
6:51 PM 19.0 °F 12.3 °F -6.0 °F 33% 30.31 in 10.0 mi Variable 4.6 mph - N/A   Clear
7:51 PM 17.1 °F - -5.1 °F 37% 30.33 in 10.0 mi Calm Calm - N/A   Clear
8:51 PM 14.0 °F - -6.0 °F 41% 30.33 in 10.0 mi Calm Calm - N/A   Clear
9:51 PM 12.0 °F - -6.0 °F 44% 30.33 in 10.0 mi Calm Calm - N/A   Clear
10:51 PM 10.0 °F 3.6 °F -7.1 °F 46% 30.29 in 10.0 mi North 3.5 mph - N/A   Clear
11:51 PM 7.0 °F -3.3 °F -7.1 °F 53% 30.30 in 10.0 mi NNE 5.8 mph - N/A   Clear